Powrót do katalogu

FREGAT DEB

LostUNKNOWN
NORAD 45879·DEBRIS·🇷🇺 Russia

Wystrzelony Jul 18, 2011 z Baikonur Cosmodrome

Loading…

Następne Przeloty (najbliższe 24 godziny)

TLE

NieaktualneSource: Space-Track

Epoka: Feb 7, 2026, 09:54 UTC

1 45879U 11037CY  26038.41302199  .00158123  00000-0  24740+0 0  9999
2 45879  50.4684  34.4845 1080565  66.9721 304.1315 12.14416118133773

Śledź FREGAT DEB w czasie rzeczywistym z AllMySat

Download on the App Store